Grand Canyon, AZ

9:16 AM MST on March 24, 2017 (GMT -0700)
Grand Canyon National Park

Weather History for KGCN - February, 2013

Change the Weather History Date:

Saturday, February 16, 2013

  Actual Average Record
Temperature  
Mean Temperature 34 °F -  
Max Temperature 57 °F 43 °F 66 °F (2016)
Min Temperature 10 °F 18 °F -6 °F (1990)
Degree Days  
Heating Degree Days 32    
Moisture  
Dew Point 10 °F    
Average Humidity 53    
Maximum Humidity 81    
Minimum Humidity 12    
Precipitation  
Precipitation 0.00 in - - ()
Sea Level Pressure  
Sea Level Pressure 30.34 in    
Wind  
Wind Speed 2 mph (SE)    
Max Wind Speed 6 mph    
Max Gust Speed -    
Visibility 10 miles    
Events      
Averages and records for this station are not official NWS values.
T = Trace of Precipitation, MM = Missing Value Source: NWS Daily Summary

Daily Weather History Graph

Daily Weather History Graph

Search for Another Location

Airport or City:

Trip Planner

Search our weather history database for the weather conditions in past years. The results will help you decide how hot, cold, wet, or windy it might be!

Date:

Astronomy

Feb. 16, 2013 Rise Set
Actual Time 7:14 AM MST 6:11 PM MST
Civil Twilight 6:48 AM MST 6:37 PM MST
Nautical Twilight 6:18 AM MST 7:07 PM MST
Astronomical Twilight 5:48 AM MST 7:37 PM MST
Moon 10:43 AM MST (2/16) 12:01 AM MST (2/16)
Length of Visible Light 11h 49m
Length of Day
10h 57m
Waxing Crescent, 40% of the Moon is Illuminated
Feb 16
Waxing Crescent
Feb 17
First Quarter
Feb 25
Full
Mar 4
Last Quarter
Mar 11
New

Hourly Weather History & Observations

Time (MST) Temp. Windchill Dew Point Humidity Pressure Visibility Wind Dir Wind Speed Gust Speed Precip Events Conditions
12:54 AM 17.1 °F - 10.9 °F 77% 30.45 in 10.0 mi Calm Calm - N/A   Clear
1:54 AM 16.0 °F 8.8 °F 10.0 °F 77% 30.44 in 10.0 mi ENE 4.6 mph - N/A   Clear
2:54 AM 15.1 °F 6.4 °F 9.0 °F 77% 30.45 in 10.0 mi NE 5.8 mph - N/A   Clear
3:54 AM 14.0 °F - 8.1 °F 77% 30.45 in 10.0 mi Calm Calm - N/A   Clear
4:54 AM 14.0 °F 5.1 °F 8.1 °F 77% 30.44 in 10.0 mi ENE 5.8 mph - N/A   Clear
5:54 AM 12.0 °F - 7.0 °F 80% 30.48 in 10.0 mi Calm Calm - N/A   Clear
6:54 AM 10.9 °F - 6.1 °F 81% 30.53 in 10.0 mi Calm Calm - N/A   Clear
7:54 AM 12.9 °F - 8.1 °F 81% 30.54 in 10.0 mi Calm Calm - N/A   Clear
8:54 AM 24.1 °F - 14.0 °F 65% 30.51 in 10.0 mi Calm Calm - N/A   Clear
9:54 AM 42.1 °F - 12.0 °F 29% 30.43 in 10.0 mi Calm Calm - N/A   Clear
10:54 AM 50.0 °F - 3.9 °F 15% 30.38 in 10.0 mi Calm Calm - N/A   Clear
11:54 AM 51.1 °F - 7.0 °F 17% 30.36 in 10.0 mi SSW 4.6 mph - N/A   Clear
12:54 PM 53.1 °F - 10.0 °F 18% 30.32 in 10.0 mi Calm Calm - N/A   Clear
1:54 PM 54.0 °F - 15.1 °F 22% 30.28 in 10.0 mi SSW 4.6 mph - N/A   Clear
2:54 PM 57.0 °F - 5.0 °F 12% 30.24 in 10.0 mi Calm Calm - N/A   Clear
3:54 PM 54.0 °F - 3.9 °F 13% 30.24 in 10.0 mi SSE 5.8 mph - N/A   Clear
4:54 PM 53.1 °F - 3.9 °F 14% 30.22 in 10.0 mi SSE 5.8 mph - N/A   Clear
5:54 PM 48.9 °F - 7.0 °F 18% 30.22 in 10.0 mi SSE 5.8 mph - N/A   Clear
6:54 PM 30.9 °F - 16.0 °F 54% 30.31 in 10.0 mi Calm Calm - N/A   Clear
7:54 PM 28.0 °F - 16.0 °F 61% 30.30 in 10.0 mi Calm Calm - N/A   Clear
8:54 PM 26.1 °F - 17.1 °F 69% 30.26 in 10.0 mi Calm Calm - N/A   Clear
9:54 PM 24.1 °F - 18.0 °F 77% 30.18 in 10.0 mi Calm Calm - N/A   Clear
10:54 PM 24.1 °F - 17.1 °F 75% 30.13 in 10.0 mi Calm Calm - N/A   Clear
11:54 PM 21.9 °F - 16.0 °F 78% 30.10 in 10.0 mi Calm Calm - N/A   Clear